Location: Unspecified
(0.0000°N, 0.0000°E)
Time: 09:30:23
(UTC+00:00)

BlueWalker 3 - Pass Details

Date: 09 November 2025
Orbit: 456 x 463 km, 53.2° (Epoch: 13 November)

Event Time Altitude Azimuth Distance (km) Brightness Sun altitude
Rises 18:19:52 0° 178° (S) 2,480 5.7 -8.6°
Reaches altitude 10° 18:24:02 10° 131° (SE) 1,604 4.2 -9.6°
Maximum altitude 18:24:25 10° 125° (SE) 1,596 4.1 -9.7°
Drops below altitude 10° 18:24:47 10° 119° (ESE) 1,604 4.1 -9.8°
Enters shadow 18:25:32 - 107° (ESE) 1,664 4.1 -9.9°
